User: anonymous   Login
Location: Chandolas
(44.4033°N, 4.2533°E)
Time: 14:26:28
(UTC+00:00)
Language:

Okean O Rocket - Orbit

View from above orbital plane
View from above orbital plane
View from above satellite
View from above satellite

Ground track
Ground track

The orbit data is extracted from the following two-line orbital elements,

1 25861U 99039B   20020.92291008 +.00000002 +00000-0 +78276-5 0  9994
2 25861 098.2029 020.1881 0014348 275.4864 141.0667 14.78560703105675
Epoch (UTC): 20 January 2020 22:08:59
Eccentricity: 0.0014348
inclination: 98.2029°
perigee height: 624 km
apogee height: 644 km
right ascension of ascending node: 20.1881°
argument of perigee: 275.4864°
revolutions per day: 14.78560703
mean anomaly at epoch: 141.0667°
orbit number at epoch: 10567

The dashed part of the orbit path shows where the satellite is in the earth's shadow,  

DLR